Погода в Сортавале

Погода в Сортавале : погода сейчас, прогноз погоды и архив. Всё, что Вы хотите узнать о погоде в Сортавале!

Хотите узнать прогноз погоды в Сортавале? Тогда Вам сюда: Погода в Сортавале

Поиск расширенной информации на нашем сайте:

Другие новости

Новости СМИ2

Главная страница сайта

Новости сайта

03.07.2017

Напоминаем, что на нашем специализированном сайте Метеоцентр.Азия вы можете получить высокодетализированные автоматические прогнозы погоды по пунктам России, СНГ и мира в авиационном формате (включающие направление и скорость ветра, видимость, явления погоды, количество и форму облачности, нижнюю и верхнюю границу облачности).

Рекомендуем: Детальное описание автоваз официальный у нас.

Погода в Сортавале - сегодня

Время (UTC), дата Ветер
(°,м/с) 
Видим.   Явления Облачность Т
(°С)
Тd
(°С)
f(%) Тe
(°С)
Pmin
(гПа)
dP
(гПа)
Po
(мм)
O2
(г/м3)
Тmin Tmax R s Состояние
почвы
21 23.07.17 310 (СЗ) 20000 м    10/10 570 м кучево-дожд. 
[Cb cap]
+12.4 +10.1 86 +13  1011.2  -1  757  290           
00 24.07.17 300 (СЗ) 8000 м  слаб. ливневой дождь  10/10 540 м кучево-дожд. 
[Cb cap]
+12.2 +10.7 91 +15  1010  -1.3  756  290           
03 24.07.17 310 (СЗ) 11000 м  слаб. ливневой дождь  10/10 570 м кучево-дожд. 
[Cb cap]
+12.8 +11.3 91 +16  1009.4  -0.6  755  289  +12.1       
06 24.07.17 360 (С) 40000 м  {ливн. осадки}  10/10 600 м кучево-дожд. 
[Cb cap]
+14.1 +11.6 85 +17  1009.4  0.1  755  287  -2.1      влажная 
09 24.07.17 010 (С) 23000 м    10/10 540 м кучево-дожд. 
[Cb cap]
+14.8 +12.2 84 +19  1010  0.5  756  287           
12 24.07.17 010 (С) 20000 м  {морось}  10/10 800 м кучево-дожд. 
[Cb cap]
+16.5 +12.5 77 +21  1010.4  0.5  756  285           
15 24.07.17 010 (С) 20000 м    9/4 600 м кучево-дожд., средняя, верхняя 
[Cb cap|Ac trans|Ci sp]
+17.3 +12.4 73 +22  1010.7  0.3  756  284      0.0     
18 24.07.17 010 (С) 20000 м    9/8 600 м кучево-дожд., средняя, верхняя 
[Cb cap|Ac trans|Ci fib]
+16 +12.1 78 +21  1010.9  0.2  757  286    +17.8  0.0     
21 24.07.17 030 (СВ) 50000 м    9/8 800 м кучево-дожд., средняя 
[Cb cap|Ac trans]
+14.5 +11.1 80 +17  1011.2  0.3  757  287           
00 25.07.17 360 (С) 50000 м    9/9 800 м кучево-дожд. 
[Cb cap]
+13.2 +10 81 +15  1010.9  -0.3  757  289           
03 25.07.17 010 (С) 20000 м    10/10 840 м 
[Sc]
+13.3 +10.3 82 +14  1010.8  -0.1  756  289  +13.1         
06 25.07.17 350 (С) 20000 м    9/8 900 м средняя 
[Sc|Ac trans]
+14.3 +10.3 77 +17  1009.9  -0.9  756  288  +13.1        влажная 
09 25.07.17 тихо ()   20000 м    10/10 660 м 
[Sc]
+15.7 +10.6 72 +18  1010.1  0.2  756  286           
12 25.07.17 210 (ЮЗ) 20000 м    9/8 630 м кучево-дожд., средняя 
[Cb cap|Ac trans]
+17.6 +10.9 65 +21  1009.8  -0.4  756  284           
15 25.07.17 090 (В) 20000 м    9/4 600 м средняя, верхняя 
[Sc|Ac trans|Ci fib]
+16.9 +11.8 72 +21  1009.6  -0.1  756  284           
18 25.07.17 тихо ()   20000 м    4/3 600 м кучево-дожд., средняя, верхняя 
[Cb cap|Ac trans|Ci fib]
+15.3 +11.8 80 +19  1009.5  -0.1  755  286    +18.1       
21 25.07.17 110 (В) 50000 м    10/10 800 м 
[Sc]
+13.3 +11.9 91 +19  1009.9  0.3  756  288           
00 26.07.17 020 (С) 50000 м    3/3 600 м средняя 
[Sc|Ac trans]
+12.6 +10.9 89 +15  1009.9  0.1  756  289           
03 26.07.17 тихо ()   23000 м  туман поземный  6/3 600 м средняя, верхняя 
[Sc|Ac trans|Ci fib]
+13.1 +11.9 92 +17  1009.6  -0.4  755  288  +11.9         
06 26.07.17 050 (СВ) 20000 м    9/4 600 м средняя, верхняя 
[Sc|Ac trans|Ci fib]
+16.7 +12.6 77 +23  1009.2  -0.3  755  284  +11.9        влажная 
09 26.07.17 060 (СВ) 20000 м  дымка  9/9 1200 м кучево-дожд. 
[Cb cap]
+18.6 +11.1 62 +22  1008.5  -0.8  755  283           
12 26.07.17 020 (С) 20000 м    6/6 1000 м 
[Cu hum]
+21.2 +11.1 52 +24  1007.4  -1.1  754  280           
15 26.07.17 020 (С) 20000 м    3/3 1000 м 
[Cu hum]
+21.2 +10.4 50 +23  1006.2  -1.2  753  280           
18 26.07.17 290 (З) 20000 м    9/8 800 м кучево-дожд., средняя 
[Cb cap|Ac trans]
+18.7 +12.3 66 +24  1005.9  -0.3  753  282    +21.5       
21 26.07.17 010 (С) 50000 м    8/4 600 м кучево-дожд., средняя 
[Cb cap|Ac trans]
+15.8 +12.5 81 +22  1005.8  -0.1  753  284           
Время (UTC), дата Ветер
(°,м/с) 
Видим.   Явления Облачность Т
(°С)
Тd
(°С)
f(%) Тe
(°С)
Pmin
(гПа)
dP
(гПа)
Po
(мм)
O2
(г/м3)
Тmin Tmax R s Состояние
почвы

Для получения пояснительной информации подведите курсор к названию столбца.

ПОГОДА в Сортавале - архив

Всё, что Вы хотите узнать о погоде в Сортавале - удобно и подробно!

Выберите нужную дату (начиная с 1 января 2015* года) и нажмите кнопку "Найти".
Будут отображены архивные сводки погоды по пункту Сортавала, начиная с указанной даты.


Отображать данные в формате CSV (для использования в таблицах Excel)


Внимание! Наш архив погоды предназначен исключительно для личного некоммерческого использования в познавательных целях. Если Вам необходимы официальные справки о состоянии погоды (для производственных, юридических, коммерческих и т.п. целей), обращайтесь в органы Росгидромета.

*Примечание: данная дата относится к архиву по метеостанциям СССР (Россия, СНГ, Балтия).
Архив по метеостанциям Зарубежной Европы и Азии (кроме Китая) хранится 10 дней, по другим регионам земного шара (Китай, Африка, Америка, Австралия, Океания) - 1 день.

Сортавала - район местоположения метеостанции


Название, широта, долгота, высота метеостанции:
Сортавала 61.7°ш. 30.7°д. 19 м над ур. моря [Российская Федерация]

Дополнительная информация

В oтличие oт бoльшинства пoгoдных сайтoв мы публикуем пoдрoбную метеoинфoрмацию в детальнoм прoфессиoнальнoм фoрмате.

Характеристики температуры и влажнoсти вoздуха измеряются на высoте 2 м в тени вдали oт зданий и деревьев.
Скoрoсть ветра измеряется на высoте 10 м (на урoвне рoста челoвека скoрoсть ветра ниже в 1.5-2 раза). Если метеoстанция нахoдится в гoрoде или в лесу, тo скoрoсть ветра занижена на 2-4 м/с пo сравнению с oткрытым местoм. Скoрoсть ветра над акватoриями крупных рек и oзёр, а также на вершинах хoлмoв на 2-5 м/с выше, чем в oбычных услoвиях.
Атмoсфернoе давление в разных тoчках местнoсти мoжет значительнo oтличаться oт давления на метеoстанции, в зависимoсти oт услoвий рельефа (при пoдъёме на 10 м давление пoнижается примернo на 1 мм рт.ст.).